Home > Weather > Guayaquil > Past weeks

Flag for Ecuador Past Weather in Guayaquil, Ecuador — Yesterday and Last 2 Weeks

Now
70 °F

Partly sunny.


Feels Like: 70 °F
Forecast: 71 / 88 °F
Wind: 9 mph from Southwest

Location: Guayaquil / Simon Bolivar

Current Time: Jul 30, 2016 at 8:07:54 AM

Latest Report: Jul 30, 2016 at 7:00 AM


Visibility: N/A

Pressure: 29.86 "Hg

Humidity: 88%

Dew Point: 66 °F

Location of GuayaquilLocation

Past Weather in Guayaquil — Graph

°F

Guayaquil Temperature Yesterday

Maximum temperature yesterday: 88 °F (at 2:00 PM)
Minimum temperature yesterday: 70 °F (at 3:00 AM)
Average temperature yesterday: 78 °F

High & Low Weather Summary for the Past Weeks

 TemperatureHumidityPressure
High88 °F (Jul 18, 3:00 PM)94% (Jul 20, 5:00 AM)29.95 "Hg (Jul 20, 5:00 AM)
Low70 °F (Jul 23, 1:00 AM)52% (Jul 25, 5:00 PM)29.74 "Hg (Jul 25, 4:00 PM)
Average77 °F76%29.86 "Hg
* Reported Jul 18 3:00 PM — Jul 30 7:00 AM, Guayaquil, Weather by CustomWeather, © 2016

Note: Actual official high and low records may vary slightly from our data, if they occured in-between our weather recording intervals... More about our weather records

Advertising

Guayaquil Weather History for the Previous 24 Hours

Scroll right to see more
 ConditionsComfort  
Time TempWeatherWind HumidityBarometerVisibility
7:00 AM
Sat, Jul 30
70 °FPartly sunny.9 mph88%29.86 "HgN/A
6:00 AM72 °FPartly cloudy.10 mph83%29.83 "HgN/A
5:00 AM72 °FClear.9 mph83%29.83 "Hg10 mi
4:00 AM72 °FPassing clouds.8 mph83%29.83 "HgN/A
3:00 AM72 °FPassing clouds.8 mph83%29.86 "HgN/A
2:00 AM73 °FPassing clouds.9 mph78%29.86 "HgN/A
1:00 AM73 °FPassing clouds.10 mph78%29.89 "HgN/A
12:00 AM73 °FPartly cloudy.13 mph78%29.89 "HgN/A
11:00 PM
Fri, Jul 29
73 °FPartly cloudy.10 mph78%29.89 "HgN/A
10:00 PM75 °FPassing clouds.14 mph74%29.89 "HgN/A
9:00 PM75 °FPassing clouds.14 mph74%29.86 "HgN/A
8:00 PM79 °FPartly cloudy.15 mph65%29.83 "HgN/A
7:00 PM81 °FPartly cloudy.15 mph66%29.80 "HgN/A
6:00 PM82 °FBroken clouds.14 mph62%29.77 "HgN/A
5:00 PM86 °FPartly sunny.7 mph55%29.77 "HgN/A
4:00 PM88 °FScattered clouds.7 mph55%29.77 "HgN/A
3:00 PM88 °FScattered clouds.5 mph55%29.77 "HgN/A
2:00 PM88 °FScattered clouds.5 mph55%29.80 "HgN/A
1:00 PM86 °FPassing clouds.5 mph55%29.83 "HgN/A
12:00 PM84 °FSunny.8 mph58%29.83 "Hg10 mi
11:00 AM81 °FSunny.5 mph62%29.86 "Hg10 mi
10:00 AM79 °FSunny.7 mph65%29.86 "Hg10 mi
9:00 AM75 °FSunny.3 mph74%29.89 "Hg10 mi
8:00 AM72 °FSunny.8 mph83%29.86 "Hg10 mi
Weather by CustomWeather, © 2016

See weather overviewHow to use our weather pages